Location: Fours
(44.3167°N, 6.7000°E)
Time: 14:55:24
(UTC+00:00)

X-37B - Visible Passes

Search period start: 20 April 2021 00:00
Search period end: 30 April 2021 00:00
Orbit: 380 x 394 km, 45.0° (Epoch: 07 April)

Date Brightness Start Highest point End Pass type
(mag) Time Alt. Az. Time Alt. Az. Time Alt. Az.
20 Apr 0.5 02:56:51 60° WSW 02:57:19 80° S 03:00:31 10° E visible
21 Apr 2.9 02:00:54 21° E 02:00:54 21° E 02:02:08 10° E visible
21 Apr 0.7 03:33:10 16° W 03:35:37 75° N 03:38:48 10° E visible
22 Apr 0.5 02:37:14 82° N 02:37:14 82° N 02:40:25 10° E visible
23 Apr 3.4 01:41:18 16° E 01:41:18 16° E 01:42:02 10° E visible
23 Apr 0.6 03:13:35 22° W 03:15:32 78° N 03:18:44 10° E visible
24 Apr 1.2 02:17:43 54° ENE 02:17:43 54° ENE 02:20:19 10° E visible
24 Apr 0.6 03:50:37 10° W 03:53:48 67° SSW 03:56:57 10° ESE visible
25 Apr 0.5 02:54:14 35° W 02:55:26 88° S 02:58:38 10° ESE visible
26 Apr 2.4 01:58:36 28° E 01:58:36 28° E 02:00:15 10° E visible
26 Apr 1.0 03:30:53 12° W 03:33:37 44° SSW 03:36:40 10° SE visible
27 Apr 0.5 02:35:26 65° S 02:35:26 65° S 02:38:28 10° ESE visible
28 Apr 1.6 03:12:37 25° SW 03:13:23 28° SSW 03:16:09 10° SSE visible
29 Apr 3.2 02:17:49 12° SE 02:17:49 12° SE 02:18:11 10° SE visible
